Date String (YYYY-MM-DD hh:mm:ss) UTC,Instrument flags,Ambient pressure (hPa),Sample flow (lpm),Bypass flow (lpm),Sample temperature (°C),Ambient temperature (°C),ASC tube jacket temperature (°C),LED temperature (°C),Box temperature (°C),Sample RH (%),Span deviation,Mass concentration (μg/m³),Mass concentration (μg/m³),Mass concentration (μg/m³)
DateTimeUTC,F1_M11,P_M11,Q1_M11,Q2_M11,T1_M11,T2_M11,T3_M11,T4_M11,T5_M11,U1_M11,ZSPAN_M11,X0_M11,X2_M11,X1_M11
2023-05-27 01:00:00,,0829.4,4.99,0.00,29.9,28.6,00.0,38.2,31.6,24.8,0000.0,0003.12,0001.37,0000.97
2023-05-27 01:01:00,,0829.4,4.99,0.00,30.0,28.6,00.0,38.2,31.6,24.5,0000.0,0002.98,0001.31,0000.96
2023-05-27 01:02:00,,0829.4,5.00,0.00,30.0,28.6,00.0,38.2,31.6,24.7,0000.0,0002.80,0001.28,0000.94
2023-05-27 01:03:00,,0829.5,5.01,0.00,30.0,28.7,00.0,38.3,31.6,24.7,0000.0,0002.76,0001.24,0000.92
2023-05-27 01:04:00,,0829.6,5.00,0.00,30.0,28.7,00.0,38.3,31.7,24.5,0000.0,0002.67,0001.23,0000.90
2023-05-27 01:05:00,,0829.6,4.99,0.00,30.0,28.7,00.0,38.3,31.7,24.9,0000.0,0002.55,0001.19,0000.89
2023-05-27 01:06:00,,0829.6,5.00,0.00,30.1,28.7,00.0,38.3,31.7,25.5,0000.0,0003.64,0001.20,0000.89
2023-05-27 01:07:00,,0829.6,4.99,0.00,30.1,28.3,00.0,38.3,31.7,25.3,0000.0,0003.94,0001.18,0000.88
2023-05-27 01:08:00,,0829.6,5.00,0.00,30.0,26.6,00.0,38.2,31.4,24.7,0000.0,0003.65,0001.15,0000.87
2023-05-27 01:09:00,,0829.6,5.00,0.00,30.0,25.7,00.0,38.1,31.3,24.4,0000.0,0003.35,0001.11,0000.85
2023-05-27 01:10:00,,0829.7,5.02,0.00,29.9,25.8,00.0,38.1,31.1,25.1,0000.0,0003.30,0001.09,0000.84
2023-05-27 01:11:00,,0829.7,5.00,0.00,29.8,26.1,00.0,38.1,31.1,25.1,0000.0,0003.31,0001.09,0000.83
2023-05-27 01:12:00,,0829.7,4.98,0.00,29.7,26.4,00.0,38.1,31.1,24.8,0000.0,0003.39,0001.11,0000.82
2023-05-27 01:13:00,,0829.7,5.02,0.00,29.7,26.8,00.0,38.1,31.2,25.1,0000.0,0003.63,0001.11,0000.82
2023-05-27 01:14:00,,0829.7,5.00,0.00,29.7,27.1,00.0,38.1,31.2,25.1,0000.0,0004.32,0001.14,0000.82
2023-05-27 01:15:00,,0829.7,5.00,0.00,29.7,27.3,00.0,38.1,31.2,25.1,0000.0,0004.35,0001.14,0000.82
2023-05-27 01:16:00,,0829.7,5.00,0.00,29.7,27.5,00.0,38.1,31.3,24.9,0000.0,0004.50,0001.15,0000.82
2023-05-27 01:17:00,,0829.8,5.00,0.00,29.7,27.7,00.0,38.1,31.3,25.2,0000.0,0003.80,0001.15,0000.81
2023-05-27 01:18:00,,0829.7,5.00,0.00,29.7,27.8,00.0,38.1,31.3,24.9,0000.0,0002.98,0001.16,0000.82
2023-05-27 01:19:00,,0829.8,5.00,0.00,29.7,28.0,00.0,38.1,31.3,24.9,0000.0,0002.90,0001.16,0000.82
2023-05-27 01:20:00,,0829.8,5.00,0.00,29.7,28.1,00.0,38.1,31.4,24.6,0000.0,0002.86,0001.15,0000.82
2023-05-27 01:21:00,,0829.8,5.00,0.00,29.8,28.1,00.0,38.1,31.4,24.6,0000.0,0002.82,0001.13,0000.82
2023-05-27 01:22:00,,0829.8,5.00,0.00,29.8,28.2,00.0,38.1,31.4,24.9,0000.0,0002.82,0001.13,0000.83
2023-05-27 01:23:00,,0829.8,5.01,0.00,29.8,28.2,00.0,38.1,31.4,25.3,0000.0,0002.99,0001.17,0000.84
2023-05-27 01:24:00,,0829.8,5.00,0.00,29.8,28.3,00.0,38.1,31.4,25.3,0000.0,0002.84,0001.16,0000.85
2023-05-27 01:25:00,,0829.8,5.00,0.00,29.8,28.3,00.0,38.1,31.5,25.0,0000.0,0002.11,0001.15,0000.86
2023-05-27 01:26:00,,0829.8,5.00,0.00,29.8,28.4,00.0,38.2,31.5,24.7,0000.0,0002.03,0001.13,0000.86
2023-05-27 01:27:00,,0829.8,4.99,0.00,29.9,28.4,00.0,38.2,31.5,24.8,0000.0,0001.92,0001.13,0000.86
2023-05-27 01:28:00,,0829.8,5.00,0.00,29.9,28.5,00.0,38.2,31.5,24.2,0000.0,0001.89,0001.14,0000.87
2023-05-27 01:29:00,,0829.9,4.99,0.00,29.9,28.5,00.0,38.2,31.5,24.3,0000.0,0001.77,0001.11,0000.87
2023-05-27 01:30:00,,0829.9,5.00,0.00,29.9,28.5,00.0,38.2,31.5,24.4,0000.0,0001.79,0001.12,0000.86
2023-05-27 01:31:00,,0830.0,5.00,0.00,29.9,28.5,00.0,38.2,31.5,24.4,0000.0,0001.95,0001.14,0000.86
2023-05-27 01:32:00,,0830.0,5.01,0.00,29.9,28.5,00.0,38.2,31.6,24.4,0000.0,0002.05,0001.17,0000.86
2023-05-27 01:33:00,,0830.0,5.00,0.00,30.0,28.6,00.0,38.2,31.6,24.6,0000.0,0002.05,0001.17,0000.86
2023-05-27 01:34:00,,0830.0,5.00,0.00,30.0,28.6,00.0,38.3,31.6,24.7,0000.0,0001.88,0001.14,0000.86
2023-05-27 01:35:00,,0830.0,5.00,0.00,30.0,28.6,00.0,38.3,31.6,24.7,0000.0,0001.85,0001.15,0000.86
2023-05-27 01:36:00,,0830.1,5.00,0.00,30.0,28.6,00.0,38.3,31.6,24.6,0000.0,0001.87,0001.16,0000.84
2023-05-27 01:37:00,,0830.0,5.01,0.00,30.0,28.6,00.0,38.3,31.7,24.7,0000.0,0001.88,0001.16,0000.84
2023-05-27 01:38:00,,0830.1,5.01,0.00,30.0,28.7,00.0,38.3,31.7,24.8,0000.0,0001.87,0001.16,0000.84
2023-05-27 01:39:00,,0830.1,5.00,0.00,30.1,28.7,00.0,38.3,31.7,24.9,0000.0,0001.95,0001.13,0000.83
2023-05-27 01:40:00,,0830.1,4.99,0.00,30.1,28.7,00.0,38.4,31.7,24.9,0000.0,0002.15,0001.15,0000.84
2023-05-27 01:41:00,,0830.1,4.98,0.00,30.1,27.6,00.0,38.3,31.6,24.9,0000.0,0002.11,0001.13,0000.84
2023-05-27 01:42:00,,0830.2,5.01,0.00,30.0,26.0,00.0,38.2,31.3,25.1,0000.0,0002.41,0001.12,0000.84
2023-05-27 01:43:00,,0830.1,5.01,0.00,29.9,25.5,00.0,38.1,31.2,25.3,0000.0,0002.44,0001.11,0000.84
2023-05-27 01:44:00,,0830.1,5.01,0.00,29.8,25.7,00.0,38.1,31.0,25.5,0000.0,0002.48,0001.14,0000.85
2023-05-27 01:45:00,,0830.1,4.99,0.00,29.7,26.0,00.0,38.1,31.0,25.8,0000.0,0002.48,0001.14,0000.85
2023-05-27 01:46:00,,0830.1,5.00,0.00,29.7,26.4,00.0,38.1,31.1,25.9,0000.0,0002.47,0001.12,0000.85
2023-05-27 01:47:00,,0830.2,5.00,0.00,29.7,26.7,00.0,38.1,31.2,26.1,0000.0,0002.42,0001.09,0000.86
2023-05-27 01:48:00,,0830.2,5.00,0.00,29.7,27.0,00.0,38.1,31.2,26.2,0000.0,0002.43,0001.11,0000.87
2023-05-27 01:49:00,,0830.2,5.00,0.00,29.7,27.3,00.0,38.1,31.2,26.5,0000.0,0002.46,0001.12,0000.88
2023-05-27 01:50:00,,0830.1,5.00,0.00,29.7,27.5,00.0,38.1,31.2,26.6,0000.0,0002.41,0001.16,0000.90
2023-05-27 01:51:00,,0830.2,5.00,0.00,29.7,27.6,00.0,38.1,31.2,26.7,0000.0,0002.14,0001.15,0000.92
2023-05-27 01:52:00,,0830.1,5.00,0.00,29.7,27.8,00.0,38.1,31.3,27.0,0000.0,0002.18,0001.17,0000.93
2023-05-27 01:53:00,,0830.0,5.00,0.00,29.7,27.9,00.0,38.1,31.3,27.0,0000.0,0001.99,0001.20,0000.95
2023-05-27 01:54:00,,0830.1,5.00,0.00,29.7,28.0,00.0,38.1,31.3,26.9,0000.0,0001.76,0001.25,0000.99
2023-05-27 01:55:00,,0830.1,4.99,0.00,29.7,28.0,00.0,38.1,31.3,26.9,0000.0,0001.95,0001.28,0001.01
2023-05-27 01:56:00,,0830.2,5.00,0.00,29.7,28.1,00.0,38.1,31.3,26.8,0000.0,0002.70,0001.31,0001.04
2023-05-27 01:57:00,,0830.2,4.99,0.00,29.7,28.2,00.0,38.1,31.4,26.8,0000.0,0003.42,0001.37,0001.07
2023-05-27 01:58:00,,0830.2,4.99,0.00,29.7,28.2,00.0,38.1,31.4,26.8,0000.0,0003.47,0001.40,0001.08
2023-05-27 01:59:00,,0830.2,5.00,0.00,29.8,28.3,00.0,38.1,31.4,26.8,0000.0,0003.49,0001.43,0001.12
